Flag for U.S.A. Weather past 2 weeks in Pomona, California, U.S.A.

Now
53 °F

Clear.


Feels Like: 52 °F
Forecast: 49 / 82 °F
Wind: 5 mph from West

Location: Chino Airport


UV Index: 7 (High)

Visibility: 7 mi


Pressure: 29.95 "Hg

Humidity: 69%

Dew point: 43 °F

Location of PomonaLocation

Historic Weather in Pomona

°F

Pomona temperature yesterday

Maximum temperature yesterday: 76 °F (at 1:53 PM)
Minimum temperature yesterday: 49 °F (at 3:53 AM)
Average temperature yesterday: 62 °F

Past Weeks' High & Low Weather Summary

 TemperatureHumidityPressure
High94 °F (Apr 9, 2:53 PM)100% (Apr 16, 5:53 AM)30.06 "Hg (Apr 16, 5:53 AM)
Low47 °F (Apr 10, 5:53 AM)6% (Apr 9, 3:53 PM)29.77 "Hg (Apr 16, 3:53 PM)
Average64 °F61%29.94 "Hg
* Reported Apr 8 11:53 PM — Apr 23 11:53 PM, Pomona, Weather by CustomWeather, © 2014

Note: Actual official high and low records may vary slightly from our data, if they occured in-between our weather recording intervals... More about our weather records

Advertising

Historic Weather Conditions — Data for Previous 24 hours

 ConditionsComfort  
Time TempWeatherWind HumidityBarometerVisibility
11:53 PM
Apr 23
55 °FClear.No wind64%29.95 "Hg7 mi
10:53 PM57 °FClear.No wind62%29.95 "Hg9 mi
9:53 PM60 °FClear.3 mph56%29.95 "Hg9 mi
8:53 PM61 °FClear.6 mph52%29.94 "Hg9 mi
7:53 PM65 °FSunny.8 mph47%29.91 "Hg10 mi
6:53 PM69 °FPartly sunny.10 mph44%29.90 "Hg10 mi
5:53 PM72 °FPartly sunny.13 mph40%29.89 "Hg10 mi
4:53 PM74 °FPartly sunny.15 mph37%29.89 "Hg10 mi
3:53 PM75 °FPartly sunny.12 mph39%29.90 "Hg10 mi
2:53 PM75 °FPartly sunny.14 mph39%29.90 "Hg10 mi
1:53 PM76 °FPartly sunny.9 mph35%29.92 "Hg10 mi
12:53 PM72 °FPartly sunny.8 mph40%29.93 "Hg10 mi
11:53 AM69 °FSunny.6 mph45%29.96 "Hg8 mi
10:53 AM66 °FPartly sunny.3 mph56%29.96 "Hg10 mi
9:53 AM63 °FPartly sunny.No wind63%29.97 "Hg10 mi
8:53 AM59 °FPartly sunny.3 mph75%29.97 "Hg10 mi
7:53 AM56 °FPartly sunny.No wind81%29.97 "Hg10 mi
6:53 AM50 °FPassing clouds.No wind93%29.95 "Hg10 mi
5:53 AM50 °FClear.No wind89%29.93 "Hg7 mi
4:53 AM50 °FClear.No wind89%29.93 "Hg7 mi
3:53 AM49 °FPassing clouds.6 mph93%29.93 "Hg8 mi
2:53 AM52 °FClear.No wind86%29.93 "Hg8 mi
Weather by CustomWeather, © 2014

See weather overview